Regional Weather Roundup
Issued by NWS

Home | Current Version | Previous Version | Graphics & Text | Print | Product List | Glossary On
Versions: 1 2 3 4 5 6 7 8 9 10 11 12 13 14 15 16 17 18 19 20 21 22 23 24 25 26 27 28 29 30 31 32 33 34 35 36 37 38 39 40 41 42 43 44 45 46 47 48 49 50
000
ASUS43 KDMX 182006
RWRIA

WEATHER ROUNDUP FOR IOWA
NATIONAL WEATHER SERVICE DES MOINES IA
200 PM CST SAT FEB 18 2017

NOTE: "FAIR" INDICATES FEW OR NO CLOUDS BELOW 12,000 FEET WITH NO
SIGNIFICANT WEATHER AND/OR OBSTRUCTIONS TO VISIBILITY.

* - THESE STATIONS ARE NOT NWS STATIONS...THUS NOT UNDER NWS
QUALITY CONTROL.  THEY ALSO DO NOT REPORT WEATHER SUCH
AS PRECIPITATION OR FOG.

IAZ001>003-012>014-020>022-031>034-043>046-182100-
   NORTHWEST IOWA

CITY           SKY/WX    TMP DP  RH WIND       PRES   REMARKS
CARROLL *      SUNNY     63  36  36 CALM      29.79F
CHEROKEE *     SUNNY     58  41  53 W3        29.80F
DENISON *      SUNNY     63  34  34 CALM      29.78F
LE MARS *      SUNNY     59  39  47 CALM      29.80F
SHELDON *      SUNNY     57  46  67 CALM      29.78F
SIOUX CITY     SUNNY     62  40  44 S3        29.79F
SPENCER        SUNNY     57  41  55 E3        29.80S
STORM LAKE *   SUNNY     57  43  58 VRB5      29.80F
$$

IAZ055>058-069>071-079>083-090>094-182100-
   SOUTHWEST IOWA

CITY           SKY/WX    TMP DP  RH WIND       PRES   REMARKS
ATLANTIC *     SUNNY     61  36  39 VRB3      29.80S
CLARINDA *     SUNNY     66  32  28 CALM        N/A
COUNCIL BLFS * SUNNY     63  36  36 CALM      29.79F
CRESTON *      SUNNY     64  32  29 CALM      29.80F
HARLAN  *      SUNNY     63  36  36 CALM      29.83F
LAMONI         SUNNY     67  35  30 CALM      29.77F
RED OAK *      SUNNY     64  34  32 CALM      29.80S
SHENANDOAH *   SUNNY     66  32  28 VRB6      29.80F
$$

IAZ047>049-059>061-072>074-084-182100-
   CENTRAL IOWA

CITY           SKY/WX    TMP DP  RH WIND       PRES   REMARKS
AMES           SUNNY     60  41  49 CALM      29.79S
ANKENY *       SUNNY     63  34  34 NW6       29.79F
BOONE *        SUNNY     61  41  48 N7        29.78S
CHARITON *     SUNNY     64  32  29 CALM      29.78F
DES MOINES     MOSUNNY   64  33  31 VRB5      29.78F
GRINNELL*      SUNNY     62  34  35 W5        29.79F
KNOXVILLE *    SUNNY     63  30  29 N5        29.77F
MARSHALLTOWN   SUNNY     60  39  45 VRB7      29.77F
NEWTON *       SUNNY     61  36  39 VRB3      29.77F
PELLA *        SUNNY     64  34  33 NW5       29.79F
PERRY *          N/A     60  35  40 NW5       29.80S
$$

IAZ004>006-015-016-023>025-035-036-182100-
   NORTH CENTRAL IOWA

CITY           SKY/WX    TMP DP  RH WIND       PRES   REMARKS
ALGONA *       SUNNY     55  45  67 CALM      29.80F
CLARION *      SUNNY     54  48  82 NW7       29.80S
ESTHERVILLE    SUNNY     54  41  61 E5        29.80S
FORT DODGE *   SUNNY     57  43  58 NW5       29.81F
MASON CITY     SUNNY     57  43  59 NW6       29.80F
FOREST CITY *    N/A     57  43  58 NW5       29.78F
IOWA FALLS *     N/A     57  45  65 NW6       29.79F
$$

IAZ007>011-017>019-026>030-037>042-050>054-066-182100-
   NORTHEAST IOWA

CITY           SKY/WX    TMP DP  RH WIND       PRES   REMARKS
CEDAR RAPIDS   SUNNY     61  38  42 NW5       29.76F
CHARLES CITY * SUNNY     54  45  71 N6        29.79S
CLINTON *      SUNNY     63  39  41 NW6       29.75F
DECORAH *      SUNNY     55  41  58 VRB7      29.76S
DUBUQUE        SUNNY     61  37  41 CALM      29.74F
MONTICELLO *   SUNNY     61  39  44 SW5       29.75S
OELWEIN *      SUNNY     55  45  67 NW8       29.77F
WATERLOO       SUNNY     57  39  51 NW8       29.77F
$$

IAZ064-065-067-068-078-182100-
   EAST CENTRAL IOWA

CITY           SKY/WX    TMP DP  RH WIND       PRES   REMARKS
DAVENPORT      SUNNY     64  32  30 NW6       29.75F
IOWA CITY      SUNNY     65  34  31 VRB5      29.78S
MUSCATINE *    SUNNY     66  32  28 VRB6      29.76S
QUAD CITIES    SUNNY     67  31  26 VRB3      29.73F
$$

IAZ062-063-075>077-085>089-095>099-182100-
   SOUTHEAST IOWA

CITY           SKY/WX    TMP DP  RH WIND       PRES   REMARKS
BURLINGTON     SUNNY     66  40  38 CALM      29.74F
FAIRFIELD *    SUNNY     64  32  29 VRB5G13   29.76F
KEOKUK *       SUNNY     66  39  37 SE7       29.75F
CENTERVILLE *    N/A     68  36  30 CALM      29.78F
OTTUMWA        SUNNY     65  34  31 N8        29.77F
WASHINGTON *   SUNNY     64  34  32 NW7       29.77F HAZE
$$

ABBREVIATIONS USED IN REMARKS
   TC - TEMPERATURES IN CELSIUS
  WCI - WIND CHILL INDEX
   HX - HEAT INDEX
  VSB - VISIBILITY
$$





USA.gov is the U.S. government's official web portal to all federal, state and local government web resources and services.